Location: Bauerbach
(50.4985°N, 10.3912°E)
Time: 22:48:53
(UTC+00:00)

ATLAS 2AS CENTAUR R/B - Pass Details

Date: 13 January 2026
Orbit: 1050 x 1161 km, 63.7° (Epoch: 16 February)

Event Time Altitude Azimuth Distance (km) Brightness Sun altitude
Exits shadow 05:06:37 21° 323° (NW) 2,185 3.9 -19.6°
Maximum altitude 05:11:20 65° 41° (NE) 1,151 2.9 -18.8°
Drops below altitude 10° 05:18:03 10° 123° (ESE) 2,865 6.0 -17.8°
Sets 05:20:42 0° 126° (SE) 3,823 6.8 -17.4°
